Year,Month,Day,Hour,Minute,Value (Times are PST for temperature in C)
2015,02,17,00,00,3.50
2015,02,17,00,01,3.50
2015,02,17,00,02,3.50
2015,02,17,00,03,3.40
2015,02,17,00,04,3.40
2015,02,17,00,05,3.40
2015,02,17,00,06,3.50
2015,02,17,00,07,3.50
2015,02,17,00,08,3.50
2015,02,17,00,09,3.50
2015,02,17,00,10,3.50
2015,02,17,00,11,3.40
2015,02,17,00,12,3.40
2015,02,17,00,13,3.40
2015,02,17,00,14,3.40
2015,02,17,00,15,3.50
2015,02,17,00,16,3.50
2015,02,17,00,17,3.50
2015,02,17,00,18,3.50
2015,02,17,00,19,3.50
2015,02,17,00,20,3.50
2015,02,17,00,21,3.50
2015,02,17,00,22,3.50
2015,02,17,00,23,3.50
2015,02,17,00,24,3.40
2015,02,17,00,25,3.40
2015,02,17,00,26,3.40
2015,02,17,00,27,3.40
2015,02,17,00,28,3.40
2015,02,17,00,29,3.40
2015,02,17,00,30,3.30
2015,02,17,00,31,3.30
2015,02,17,00,32,3.30
2015,02,17,00,33,3.30
2015,02,17,00,34,3.30
2015,02,17,00,35,3.30
2015,02,17,00,36,3.30
2015,02,17,00,37,3.30
2015,02,17,00,38,3.20
2015,02,17,00,39,3.20
2015,02,17,00,40,3.20
2015,02,17,00,41,3.20
2015,02,17,00,42,3.10
2015,02,17,00,43,3.10
2015,02,17,00,44,3.00
2015,02,17,00,45,3.00
2015,02,17,00,46,3.00
2015,02,17,00,47,2.90
2015,02,17,00,48,2.90
2015,02,17,00,49,2.80
2015,02,17,00,50,2.80
2015,02,17,00,51,2.70
2015,02,17,00,52,2.70
2015,02,17,00,53,2.70
2015,02,17,00,54,2.60
2015,02,17,00,55,2.60
2015,02,17,00,56,2.60
2015,02,17,00,57,2.60
2015,02,17,00,58,2.50
2015,02,17,00,59,2.50
2015,02,17,01,00,2.50
2015,02,17,01,01,2.50
2015,02,17,01,02,2.50
2015,02,17,01,03,2.40
2015,02,17,01,04,2.40
2015,02,17,01,05,2.50
2015,02,17,01,06,2.40
2015,02,17,01,07,2.40
2015,02,17,01,08,2.40
2015,02,17,01,09,2.40
2015,02,17,01,10,2.40
2015,02,17,01,11,2.40
2015,02,17,01,12,2.40
2015,02,17,01,13,2.40
2015,02,17,01,14,2.40
2015,02,17,01,15,2.50
2015,02,17,01,16,2.50
2015,02,17,01,17,2.50
2015,02,17,01,18,2.60
2015,02,17,01,19,2.60
2015,02,17,01,20,2.60
2015,02,17,01,21,2.60
2015,02,17,01,22,2.60
2015,02,17,01,23,2.50
2015,02,17,01,24,2.40
2015,02,17,01,25,2.30
2015,02,17,01,26,2.30
2015,02,17,01,27,2.20
2015,02,17,01,28,2.10
2015,02,17,01,29,2.00
2015,02,17,01,30,2.00
2015,02,17,01,31,1.90
2015,02,17,01,32,1.90
2015,02,17,01,33,1.90
2015,02,17,01,34,1.90
2015,02,17,01,35,2.00
2015,02,17,01,36,2.00
2015,02,17,01,37,2.10
2015,02,17,01,38,2.10
2015,02,17,01,39,2.20
2015,02,17,01,40,2.20
2015,02,17,01,41,2.20
2015,02,17,01,42,2.20
2015,02,17,01,43,2.30
2015,02,17,01,44,2.30
2015,02,17,01,45,2.30
2015,02,17,01,46,2.30
2015,02,17,01,47,2.30
2015,02,17,01,48,2.40
2015,02,17,01,49,2.40
2015,02,17,01,50,2.40
2015,02,17,01,51,2.40
2015,02,17,01,52,2.40
2015,02,17,01,53,2.40
2015,02,17,01,54,2.50
2015,02,17,01,55,2.50
2015,02,17,01,56,2.50
2015,02,17,01,57,2.50
2015,02,17,01,58,2.60
2015,02,17,01,59,2.60
2015,02,17,02,00,2.60
2015,02,17,02,01,2.60
2015,02,17,02,02,2.60
2015,02,17,02,03,2.60
2015,02,17,02,04,2.60
2015,02,17,02,05,2.60
2015,02,17,02,06,2.60
2015,02,17,02,07,2.60
2015,02,17,02,08,2.60
2015,02,17,02,09,2.60
2015,02,17,02,10,2.60
2015,02,17,02,11,2.60
2015,02,17,02,12,2.60
2015,02,17,02,13,2.60
2015,02,17,02,14,2.70
2015,02,17,02,15,2.70
2015,02,17,02,16,2.70
2015,02,17,02,17,2.70
2015,02,17,02,18,2.70
2015,02,17,02,19,2.70
2015,02,17,02,20,2.70
2015,02,17,02,21,2.60
2015,02,17,02,22,2.60
2015,02,17,02,23,2.60
2015,02,17,02,24,2.60
2015,02,17,02,25,2.60
2015,02,17,02,26,2.60
2015,02,17,02,27,2.50
2015,02,17,02,28,2.50
2015,02,17,02,29,2.50
2015,02,17,02,30,2.40
2015,02,17,02,31,2.40
2015,02,17,02,32,2.40
2015,02,17,02,33,2.40
2015,02,17,02,34,2.40
2015,02,17,02,35,2.40
2015,02,17,02,36,2.40
2015,02,17,02,37,2.40
2015,02,17,02,38,2.40
2015,02,17,02,39,2.40
2015,02,17,02,40,2.40
2015,02,17,02,41,2.40
2015,02,17,02,42,2.30
2015,02,17,02,43,2.30
2015,02,17,02,44,2.30
2015,02,17,02,45,2.30
2015,02,17,02,46,2.30
2015,02,17,02,47,2.30
2015,02,17,02,48,2.30
2015,02,17,02,49,2.30
2015,02,17,02,50,2.30
2015,02,17,02,51,2.30
2015,02,17,02,52,2.30
2015,02,17,02,53,2.30
2015,02,17,02,54,2.30
2015,02,17,02,55,2.30
2015,02,17,02,56,2.40
2015,02,17,02,57,2.40
2015,02,17,02,58,2.40
2015,02,17,02,59,2.40
2015,02,17,03,00,2.40
2015,02,17,03,01,2.40
2015,02,17,03,02,2.40
2015,02,17,03,06,2.40
2015,02,17,03,07,2.50
2015,02,17,03,08,2.50
2015,02,17,03,09,2.50
2015,02,17,03,10,2.60
2015,02,17,03,11,2.60
2015,02,17,03,12,2.50
2015,02,17,03,13,2.50
2015,02,17,03,14,2.50
2015,02,17,03,15,2.50
2015,02,17,03,16,2.50
2015,02,17,03,17,2.50
2015,02,17,03,18,2.50
2015,02,17,03,19,2.50
2015,02,17,03,20,2.40
2015,02,17,03,21,2.40
2015,02,17,03,22,2.40
2015,02,17,03,23,2.40
2015,02,17,03,24,2.40
2015,02,17,03,25,2.40
2015,02,17,03,26,2.40
2015,02,17,03,27,2.30
2015,02,17,03,28,2.30
2015,02,17,03,29,2.20
2015,02,17,03,30,2.20
2015,02,17,03,31,2.20
2015,02,17,03,32,2.10
2015,02,17,03,33,2.00
2015,02,17,03,34,2.00
2015,02,17,03,35,1.90
2015,02,17,03,36,1.90
2015,02,17,03,37,1.90
2015,02,17,03,38,1.80
2015,02,17,03,39,1.80
2015,02,17,03,40,1.80
2015,02,17,03,41,1.70
2015,02,17,03,42,1.70
2015,02,17,03,43,1.70
2015,02,17,03,44,1.70
2015,02,17,03,45,1.70
2015,02,17,03,46,1.70
2015,02,17,03,47,1.70
2015,02,17,03,48,1.70
2015,02,17,03,49,1.60
2015,02,17,03,50,1.60
2015,02,17,03,51,1.60
2015,02,17,03,52,1.60
2015,02,17,03,53,1.60
2015,02,17,03,54,1.60
2015,02,17,03,55,1.60
2015,02,17,03,56,1.60
2015,02,17,03,57,1.50
2015,02,17,03,58,1.50
2015,02,17,03,59,1.50
2015,02,17,04,00,1.50
2015,02,17,04,01,1.40
2015,02,17,04,02,1.40
2015,02,17,04,03,1.30
2015,02,17,04,04,1.30
2015,02,17,04,05,1.30
2015,02,17,04,06,1.30
2015,02,17,04,07,1.30
2015,02,17,04,08,1.20
2015,02,17,04,09,1.20
2015,02,17,04,10,1.20
2015,02,17,04,11,1.20
2015,02,17,04,12,1.20
2015,02,17,04,13,1.20
2015,02,17,04,14,1.10
2015,02,17,04,15,1.10
2015,02,17,04,16,1.10
2015,02,17,04,17,1.10
2015,02,17,04,18,1.10
2015,02,17,04,19,1.10
2015,02,17,04,20,1.10
2015,02,17,04,21,1.10
2015,02,17,04,22,1.10
2015,02,17,04,23,1.10
2015,02,17,04,24,1.00
2015,02,17,04,25,1.00
2015,02,17,04,26,1.00
2015,02,17,04,27,1.00
2015,02,17,04,28,1.00
2015,02,17,04,29,0.90
2015,02,17,04,30,0.90
2015,02,17,04,31,0.90
2015,02,17,04,32,0.90
2015,02,17,04,33,0.90
2015,02,17,04,34,0.90
2015,02,17,04,35,0.90
2015,02,17,04,36,0.90
2015,02,17,04,37,0.80
2015,02,17,04,38,0.80
2015,02,17,04,39,0.80
2015,02,17,04,40,0.80
2015,02,17,04,41,0.80
2015,02,17,04,42,0.80
2015,02,17,04,43,0.80
2015,02,17,04,44,0.80
2015,02,17,04,45,0.80
2015,02,17,04,46,0.80
2015,02,17,04,47,0.80
2015,02,17,04,48,0.80
2015,02,17,04,49,0.80
2015,02,17,04,50,0.80
2015,02,17,04,51,0.80
2015,02,17,04,52,0.80
2015,02,17,04,53,0.80
2015,02,17,04,54,0.70
2015,02,17,04,55,0.70
2015,02,17,04,56,0.70
2015,02,17,04,57,0.70
2015,02,17,04,58,0.70
2015,02,17,04,59,0.70
2015,02,17,05,00,0.70
2015,02,17,05,01,0.70
2015,02,17,05,02,0.70
2015,02,17,05,03,0.70
2015,02,17,05,04,0.70
2015,02,17,05,05,0.70
2015,02,17,05,06,0.70
2015,02,17,05,07,0.70
2015,02,17,05,08,0.70
2015,02,17,05,09,0.70
2015,02,17,05,10,0.70
2015,02,17,05,11,0.70
2015,02,17,05,12,0.70
2015,02,17,05,13,0.70
2015,02,17,05,14,0.70
2015,02,17,05,15,0.70
2015,02,17,05,16,0.70
2015,02,17,05,17,0.70
2015,02,17,05,18,0.70
2015,02,17,05,19,0.70
2015,02,17,05,20,0.70
2015,02,17,05,21,0.70
2015,02,17,05,22,0.70
2015,02,17,05,23,0.70
2015,02,17,05,24,0.70
2015,02,17,05,25,0.70
2015,02,17,05,26,0.60
2015,02,17,05,27,0.60
2015,02,17,05,28,0.60
2015,02,17,05,29,0.60
2015,02,17,05,30,0.60
2015,02,17,05,31,0.60
2015,02,17,05,32,0.50
2015,02,17,05,33,0.50
2015,02,17,05,34,0.50
2015,02,17,05,35,0.50
2015,02,17,05,36,0.50
2015,02,17,05,37,0.50
2015,02,17,05,38,0.50
2015,02,17,05,39,0.50
2015,02,17,05,40,0.40
2015,02,17,05,41,0.40
2015,02,17,05,42,0.40
2015,02,17,05,43,0.40
2015,02,17,05,44,0.40
2015,02,17,05,45,0.40
2015,02,17,05,46,0.40
2015,02,17,05,47,0.40
2015,02,17,05,48,0.30
2015,02,17,05,49,0.30
2015,02,17,05,50,0.30
2015,02,17,05,51,0.30
2015,02,17,05,52,0.30
2015,02,17,05,53,0.30
2015,02,17,05,54,0.30
2015,02,17,05,55,0.20
2015,02,17,05,56,0.20
2015,02,17,05,57,0.20
2015,02,17,05,58,0.20
2015,02,17,05,59,0.20
2015,02,17,06,00,0.20
2015,02,17,06,01,0.20
2015,02,17,06,02,0.20
2015,02,17,06,03,0.20
2015,02,17,06,04,0.20
2015,02,17,06,05,0.10
2015,02,17,06,06,0.20
2015,02,17,06,07,0.10
2015,02,17,06,08,0.10
2015,02,17,06,09,0.10
2015,02,17,06,10,0.10
2015,02,17,06,11,0.10
2015,02,17,06,12,0.10
2015,02,17,06,13,0.10
2015,02,17,06,14,0.10
2015,02,17,06,15,0.10
2015,02,17,06,16,0.20
2015,02,17,06,17,0.20
2015,02,17,06,18,0.20
2015,02,17,06,19,0.20
2015,02,17,06,20,0.20
2015,02,17,06,21,0.20
2015,02,17,06,22,0.20
2015,02,17,06,23,0.20
2015,02,17,06,24,0.20
2015,02,17,06,25,0.20
2015,02,17,06,26,0.20
2015,02,17,06,27,0.20
2015,02,17,06,28,0.20
2015,02,17,06,29,0.20
2015,02,17,06,30,0.20
2015,02,17,06,31,0.20
2015,02,17,06,32,0.20
2015,02,17,06,33,0.20
2015,02,17,06,34,0.20
2015,02,17,06,35,0.20
2015,02,17,06,36,0.20
2015,02,17,06,37,0.20
2015,02,17,06,38,0.20
2015,02,17,06,39,0.30
2015,02,17,06,40,0.30
2015,02,17,06,41,0.30
2015,02,17,06,42,0.30
2015,02,17,06,43,0.30
2015,02,17,06,44,0.40
2015,02,17,06,45,0.40
2015,02,17,06,46,0.40
2015,02,17,06,47,0.40
2015,02,17,06,48,0.40
2015,02,17,06,49,0.40
2015,02,17,06,50,0.40
2015,02,17,06,51,0.40
2015,02,17,06,52,0.40
2015,02,17,06,53,0.40
2015,02,17,06,54,0.40
2015,02,17,06,55,0.40
2015,02,17,06,56,0.40
2015,02,17,06,57,0.40
2015,02,17,06,58,0.40
2015,02,17,06,59,0.40
2015,02,17,07,00,0.40
2015,02,17,07,01,0.40
2015,02,17,07,02,0.40
2015,02,17,07,03,0.30
2015,02,17,07,04,0.30
2015,02,17,07,05,0.30
2015,02,17,07,06,0.30
2015,02,17,07,07,0.30
2015,02,17,07,08,0.20
2015,02,17,07,09,0.20
2015,02,17,07,10,0.20
2015,02,17,07,11,0.20
2015,02,17,07,12,0.20
2015,02,17,07,13,0.20
2015,02,17,07,14,0.20
2015,02,17,07,15,0.20
2015,02,17,07,16,0.20
2015,02,17,07,17,0.10
2015,02,17,07,18,0.10
2015,02,17,07,19,0.10
2015,02,17,07,20,0.10
2015,02,17,07,21,0.10
2015,02,17,07,22,0.10
2015,02,17,07,23,0.10
2015,02,17,07,24,0.10
2015,02,17,07,25,0.10
2015,02,17,07,26,0.10
2015,02,17,07,27,0.10
2015,02,17,07,28,0.10
2015,02,17,07,29,0.10
2015,02,17,07,30,0.10
2015,02,17,07,31,0.10
2015,02,17,07,32,0.00
2015,02,17,07,33,0.00
2015,02,17,07,34,0.00
2015,02,17,07,35,0.00
2015,02,17,07,36,0.00
2015,02,17,07,37,0.00
2015,02,17,07,38,0.00
2015,02,17,07,39,0.00
2015,02,17,07,40,0.00
2015,02,17,07,41,-0.10
2015,02,17,07,42,-0.10
2015,02,17,07,43,-0.10
2015,02,17,07,44,-0.10
2015,02,17,07,45,-0.10
2015,02,17,07,46,-0.10
2015,02,17,07,47,-0.10
2015,02,17,07,48,-0.10
2015,02,17,07,49,-0.10
2015,02,17,07,50,-0.10
2015,02,17,07,51,-0.10
2015,02,17,07,52,-0.10
2015,02,17,07,53,-0.10
2015,02,17,07,54,-0.10
2015,02,17,07,55,-0.10
2015,02,17,07,56,-0.10
2015,02,17,07,57,-0.20
2015,02,17,07,58,-0.20
2015,02,17,07,59,-0.20
2015,02,17,08,00,-0.20
2015,02,17,08,01,-0.20
2015,02,17,08,02,-0.20
2015,02,17,08,03,-0.20
2015,02,17,08,04,-0.20
2015,02,17,08,05,-0.30
2015,02,17,08,06,-0.30
2015,02,17,08,07,-0.30
2015,02,17,08,08,-0.30
2015,02,17,08,09,-0.30
2015,02,17,08,10,-0.30
2015,02,17,08,11,-0.30
2015,02,17,08,12,-0.40
2015,02,17,08,13,-0.40
2015,02,17,08,14,-0.40
2015,02,17,08,15,-0.40
2015,02,17,08,16,-0.40
2015,02,17,08,17,-0.40
2015,02,17,08,18,-0.40
2015,02,17,08,19,-0.40
2015,02,17,08,20,-0.40
2015,02,17,08,21,-0.40
2015,02,17,08,22,-0.40
2015,02,17,08,23,-0.40
2015,02,17,08,24,-0.40
2015,02,17,08,25,-0.40
2015,02,17,08,26,-0.40
2015,02,17,08,27,-0.40
2015,02,17,08,28,-0.40
2015,02,17,08,29,-0.40
2015,02,17,08,30,-0.40
2015,02,17,08,31,-0.40
2015,02,17,08,32,-0.40
2015,02,17,08,33,-0.40
2015,02,17,08,34,-0.40
2015,02,17,08,35,-0.40
2015,02,17,08,36,-0.30
2015,02,17,08,37,-0.30
2015,02,17,08,38,-0.30
2015,02,17,08,39,-0.30
2015,02,17,08,40,-0.30
2015,02,17,08,41,-0.30
2015,02,17,08,42,-0.30
2015,02,17,08,43,-0.30
2015,02,17,08,44,-0.30
2015,02,17,08,45,-0.30
2015,02,17,08,46,-0.30
2015,02,17,08,47,-0.30
2015,02,17,08,48,-0.30
2015,02,17,08,49,-0.20
2015,02,17,08,50,-0.20
2015,02,17,08,51,-0.20
2015,02,17,08,52,-0.20
2015,02,17,08,53,-0.20
2015,02,17,08,54,-0.20
2015,02,17,08,55,-0.10
2015,02,17,08,56,-0.10
2015,02,17,08,57,-0.10
2015,02,17,08,58,-0.10
2015,02,17,08,59,-0.10
2015,02,17,09,00,-0.10
2015,02,17,09,01,-0.10
2015,02,17,09,02,0.00
2015,02,17,09,03,0.00
2015,02,17,09,04,0.00
2015,02,17,09,05,0.00
2015,02,17,09,06,0.00
2015,02,17,09,07,0.10
2015,02,17,09,08,0.10
2015,02,17,09,09,0.10
2015,02,17,09,10,0.10
2015,02,17,09,11,0.10
2015,02,17,09,12,0.10
2015,02,17,09,13,0.10
2015,02,17,09,14,0.00
2015,02,17,09,15,0.00
2015,02,17,09,16,0.00
2015,02,17,09,17,0.00
2015,02,17,09,18,0.00
2015,02,17,09,19,0.00
2015,02,17,09,20,0.10
2015,02,17,09,21,0.10
2015,02,17,09,22,0.10
2015,02,17,09,23,0.10
2015,02,17,09,24,0.10
2015,02,17,09,25,0.10
2015,02,17,09,26,0.10
2015,02,17,09,27,0.10
2015,02,17,09,28,0.20
2015,02,17,09,29,0.20
2015,02,17,09,30,0.20
2015,02,17,09,31,0.20
2015,02,17,09,32,0.10
2015,02,17,09,33,0.10
2015,02,17,09,34,0.10
2015,02,17,09,35,0.10
2015,02,17,09,36,0.10
2015,02,17,09,37,0.10
2015,02,17,09,38,0.10
2015,02,17,09,39,0.20
2015,02,17,09,40,0.20
2015,02,17,09,41,0.20
2015,02,17,09,42,0.30
2015,02,17,09,43,0.30
2015,02,17,09,44,0.40
2015,02,17,09,45,0.50
2015,02,17,09,46,0.60
2015,02,17,09,47,0.70
2015,02,17,09,48,0.80
2015,02,17,09,49,0.90
2015,02,17,09,50,1.00
2015,02,17,09,51,1.10
2015,02,17,09,52,1.20
2015,02,17,09,53,1.20
2015,02,17,09,54,1.30
2015,02,17,09,55,1.30
2015,02,17,09,56,1.40
2015,02,17,09,57,1.40
2015,02,17,09,58,1.50
2015,02,17,09,59,1.50
2015,02,17,10,00,1.60
2015,02,17,10,01,1.60
2015,02,17,10,02,1.60
2015,02,17,10,03,1.60
2015,02,17,10,04,1.70
2015,02,17,10,05,1.70
2015,02,17,10,06,1.70
2015,02,17,10,07,1.70
2015,02,17,10,08,1.70
2015,02,17,10,09,1.70
2015,02,17,10,10,1.70
2015,02,17,10,11,1.70
2015,02,17,10,12,1.70
2015,02,17,10,13,1.80
2015,02,17,10,14,1.80
2015,02,17,10,15,1.80
2015,02,17,10,16,1.90
2015,02,17,10,17,1.90
2015,02,17,10,18,2.00
2015,02,17,10,19,2.00
2015,02,17,10,20,2.10
2015,02,17,10,21,2.10
2015,02,17,10,22,2.10
2015,02,17,10,23,2.10
2015,02,17,10,24,2.10
2015,02,17,10,25,2.10
2015,02,17,10,26,2.20
2015,02,17,10,27,2.20
2015,02,17,10,28,2.30
2015,02,17,10,29,2.30
2015,02,17,10,30,2.40
2015,02,17,10,31,2.50
2015,02,17,10,32,2.50
2015,02,17,10,33,2.60
2015,02,17,10,34,2.60
2015,02,17,10,35,2.60
2015,02,17,10,36,2.60
2015,02,17,10,37,2.60
2015,02,17,10,38,2.70
2015,02,17,10,39,2.70
2015,02,17,10,40,2.80
2015,02,17,10,41,2.80
2015,02,17,10,42,2.90
2015,02,17,10,43,2.90
2015,02,17,10,44,3.00
2015,02,17,10,45,3.10
2015,02,17,10,46,3.10
2015,02,17,10,47,3.20
2015,02,17,10,48,3.40
2015,02,17,10,49,3.50
2015,02,17,10,50,3.60
2015,02,17,10,51,3.70
2015,02,17,10,52,3.80
2015,02,17,10,53,3.80
2015,02,17,10,54,3.90
2015,02,17,10,55,3.90
2015,02,17,10,56,3.90
2015,02,17,10,57,3.90
2015,02,17,10,58,3.90
2015,02,17,10,59,3.90
2015,02,17,11,00,3.80
2015,02,17,11,01,3.80
2015,02,17,11,02,3.80
2015,02,17,11,03,3.70
2015,02,17,11,04,3.70
2015,02,17,11,05,3.70
2015,02,17,11,06,3.70
2015,02,17,11,07,3.70
2015,02,17,11,08,3.70
2015,02,17,11,09,3.70
2015,02,17,11,10,3.70
2015,02,17,11,11,3.80
2015,02,17,11,12,3.80
2015,02,17,11,13,3.80
2015,02,17,11,14,3.90
2015,02,17,11,15,4.00
2015,02,17,11,16,4.00
2015,02,17,11,17,4.10
2015,02,17,11,18,4.10
2015,02,17,11,19,4.20
2015,02,17,11,20,4.20
2015,02,17,11,21,4.20
2015,02,17,11,22,4.20
2015,02,17,11,23,4.20
2015,02,17,11,24,4.20
2015,02,17,11,25,4.10
2015,02,17,11,26,4.10
2015,02,17,11,27,4.10
2015,02,17,11,28,4.10
2015,02,17,11,29,4.10
2015,02,17,11,30,4.20
2015,02,17,11,31,4.30
2015,02,17,11,32,4.30
2015,02,17,11,33,4.40
2015,02,17,11,34,4.40
2015,02,17,11,35,4.50
2015,02,17,11,36,4.50
2015,02,17,11,37,4.60
2015,02,17,11,38,4.70
2015,02,17,11,39,4.70
2015,02,17,11,40,4.70
2015,02,17,11,41,4.90
2015,02,17,11,42,5.00
2015,02,17,11,43,5.00
2015,02,17,11,44,5.10
2015,02,17,11,45,5.20
2015,02,17,11,46,5.20
2015,02,17,11,47,5.20
2015,02,17,11,48,5.30
2015,02,17,11,49,5.40
2015,02,17,11,50,5.50
2015,02,17,11,51,5.60
2015,02,17,11,52,5.70
2015,02,17,11,53,5.80
2015,02,17,11,54,5.80
2015,02,17,11,55,5.90
2015,02,17,11,56,6.00
2015,02,17,11,57,6.00
2015,02,17,11,58,6.10
2015,02,17,11,59,6.10
2015,02,17,12,00,6.10
2015,02,17,12,01,6.20
2015,02,17,12,02,6.20
2015,02,17,12,03,6.30
2015,02,17,12,04,6.30
2015,02,17,12,05,6.30
2015,02,17,12,06,6.40
2015,02,17,12,07,6.40
2015,02,17,12,08,6.50
2015,02,17,12,09,6.50
2015,02,17,12,10,6.50
2015,02,17,12,11,6.60
2015,02,17,12,12,6.60
2015,02,17,12,13,6.70
2015,02,17,12,14,6.70
2015,02,17,12,15,6.70
2015,02,17,12,16,6.80
2015,02,17,12,17,6.90
2015,02,17,12,18,7.00
2015,02,17,12,19,7.00
2015,02,17,12,20,7.10
2015,02,17,12,21,7.20
2015,02,17,12,22,7.30
2015,02,17,12,23,7.30
2015,02,17,12,24,7.40
2015,02,17,12,25,7.40
2015,02,17,12,26,7.50
2015,02,17,12,27,7.50
2015,02,17,12,28,7.60
2015,02,17,12,29,7.70
2015,02,17,12,30,7.70
2015,02,17,12,31,7.80
2015,02,17,12,32,7.90
2015,02,17,12,33,8.00
2015,02,17,12,34,8.00
2015,02,17,12,35,8.10
2015,02,17,12,36,8.20
2015,02,17,12,37,8.20
2015,02,17,12,38,8.30
2015,02,17,12,39,8.30
2015,02,17,12,40,8.40
2015,02,17,12,41,8.40
2015,02,17,12,42,8.50
2015,02,17,12,43,8.50
2015,02,17,12,44,8.60
2015,02,17,12,45,8.60
2015,02,17,12,46,8.70
2015,02,17,12,47,8.80
2015,02,17,12,48,8.80
2015,02,17,12,49,8.80
2015,02,17,12,50,8.80
2015,02,17,12,51,8.80
2015,02,17,12,52,8.80
2015,02,17,12,53,8.80
2015,02,17,12,54,8.80
2015,02,17,12,55,8.80
2015,02,17,12,56,8.90
2015,02,17,12,57,8.90
2015,02,17,12,58,9.00
2015,02,17,12,59,9.10
2015,02,17,13,00,9.10
2015,02,17,13,01,9.20
2015,02,17,13,02,9.30
2015,02,17,13,03,9.40
2015,02,17,13,04,9.40
2015,02,17,13,05,9.50
2015,02,17,13,06,9.60
2015,02,17,13,07,9.70
2015,02,17,13,08,9.80
2015,02,17,13,09,9.90
2015,02,17,13,10,10.10
2015,02,17,13,11,10.20
2015,02,17,13,12,10.30
2015,02,17,13,13,10.30
2015,02,17,13,14,10.40
2015,02,17,13,15,10.40
2015,02,17,13,16,10.40
2015,02,17,13,17,10.40
2015,02,17,13,18,10.40
2015,02,17,13,19,10.40
2015,02,17,13,20,10.40
2015,02,17,13,21,10.40
2015,02,17,13,22,10.40
2015,02,17,13,23,10.40
2015,02,17,13,24,10.40
2015,02,17,13,25,10.40
2015,02,17,13,26,10.40
2015,02,17,13,27,10.40
2015,02,17,13,28,10.40
2015,02,17,13,29,10.40
2015,02,17,13,30,10.40
2015,02,17,13,31,10.40
2015,02,17,13,32,10.50
2015,02,17,13,33,10.50
2015,02,17,13,34,10.60
2015,02,17,13,35,10.70
2015,02,17,13,36,10.70
2015,02,17,13,37,10.80
2015,02,17,13,38,10.90
2015,02,17,13,39,10.90
2015,02,17,13,40,11.00
2015,02,17,13,41,11.10
2015,02,17,13,42,11.20
2015,02,17,13,43,11.30
2015,02,17,13,44,11.40
2015,02,17,13,45,11.50
2015,02,17,13,46,11.50
2015,02,17,13,47,11.60
2015,02,17,13,48,11.60
2015,02,17,13,49,11.60
2015,02,17,13,50,11.60
2015,02,17,13,51,11.60
2015,02,17,13,52,11.60
2015,02,17,13,53,11.60
2015,02,17,13,54,11.60
2015,02,17,13,55,11.60
2015,02,17,13,56,11.60
2015,02,17,13,57,11.70
2015,02,17,13,58,11.70
2015,02,17,13,59,11.70
2015,02,17,14,00,11.70
2015,02,17,14,01,11.80
2015,02,17,14,02,11.90
2015,02,17,14,03,12.00
2015,02,17,14,04,12.10
2015,02,17,14,05,12.20
2015,02,17,14,06,12.30
2015,02,17,14,07,12.30
2015,02,17,14,08,12.40
2015,02,17,14,09,12.40
2015,02,17,14,10,12.50
2015,02,17,14,11,12.50
2015,02,17,14,12,12.60
2015,02,17,14,13,12.60
2015,02,17,14,14,12.60
2015,02,17,14,15,12.60
2015,02,17,14,16,12.70
2015,02,17,14,17,12.70
2015,02,17,14,18,12.70
2015,02,17,14,19,12.70
2015,02,17,14,20,12.70
2015,02,17,14,21,12.80
2015,02,17,14,22,12.80
2015,02,17,14,23,12.90
2015,02,17,14,24,13.00
2015,02,17,14,25,13.10
2015,02,17,14,26,13.10
2015,02,17,14,27,13.20
2015,02,17,14,28,13.30
2015,02,17,14,29,13.30
2015,02,17,14,30,13.30
2015,02,17,14,31,13.40
2015,02,17,14,32,13.40
2015,02,17,14,33,13.50
2015,02,17,14,34,13.50
2015,02,17,14,35,13.70
2015,02,17,14,36,13.80
2015,02,17,14,37,13.80
2015,02,17,14,38,13.90
2015,02,17,14,39,14.00
2015,02,17,14,40,13.90
2015,02,17,14,41,13.90
2015,02,17,14,42,13.90
2015,02,17,14,43,13.90
2015,02,17,14,44,13.80
2015,02,17,14,45,13.80
2015,02,17,14,46,13.80
2015,02,17,14,47,13.90
2015,02,17,14,48,13.90
2015,02,17,14,49,13.90
2015,02,17,14,50,14.00
2015,02,17,14,51,13.90
2015,02,17,14,52,13.90
2015,02,17,14,53,13.90
2015,02,17,14,54,13.80
2015,02,17,14,55,13.80
2015,02,17,14,56,13.80
2015,02,17,14,57,13.80
2015,02,17,14,58,13.80
2015,02,17,14,59,13.80
2015,02,17,15,00,13.80
2015,02,17,15,01,13.70
2015,02,17,15,02,13.70
2015,02,17,15,03,13.60
2015,02,17,15,04,13.60
2015,02,17,15,05,13.60
2015,02,17,15,06,13.50
2015,02,17,15,07,13.50
2015,02,17,15,08,13.50
2015,02,17,15,09,13.60
2015,02,17,15,10,13.60
2015,02,17,15,11,13.70
2015,02,17,15,12,13.80
2015,02,17,15,13,13.80
2015,02,17,15,14,14.00
2015,02,17,15,15,14.00
2015,02,17,15,16,14.10
2015,02,17,15,17,14.10
2015,02,17,15,18,14.10
2015,02,17,15,19,14.00
2015,02,17,15,20,13.90
2015,02,17,15,21,13.90
2015,02,17,15,22,13.90
2015,02,17,15,23,13.90
2015,02,17,15,24,13.90
2015,02,17,15,25,14.00
2015,02,17,15,26,14.00
2015,02,17,15,27,14.00
2015,02,17,15,28,13.90
2015,02,17,15,29,13.90
2015,02,17,15,30,13.90
2015,02,17,15,31,13.80
2015,02,17,15,32,13.80
2015,02,17,15,33,13.80
2015,02,17,15,34,13.80
2015,02,17,15,35,13.80
2015,02,17,15,36,13.80
2015,02,17,15,37,13.80
2015,02,17,15,38,13.80
2015,02,17,15,39,13.80
2015,02,17,15,40,13.90
2015,02,17,15,41,14.00
2015,02,17,15,42,14.00
2015,02,17,15,43,14.00
2015,02,17,15,44,14.10
2015,02,17,15,45,14.00
2015,02,17,15,46,14.00
2015,02,17,15,47,14.10
2015,02,17,15,48,14.10
2015,02,17,15,49,14.10
2015,02,17,15,50,14.10
2015,02,17,15,51,14.10
2015,02,17,15,52,14.10
2015,02,17,15,53,14.10
2015,02,17,15,54,14.10
2015,02,17,15,55,14.10
2015,02,17,15,56,14.10
2015,02,17,15,57,14.00
2015,02,17,15,58,14.00
2015,02,17,15,59,13.90
2015,02,17,16,00,13.90
2015,02,17,16,01,13.90
2015,02,17,16,02,13.90
2015,02,17,16,03,13.80
2015,02,17,16,04,13.80
2015,02,17,16,05,13.80
2015,02,17,16,06,13.90
2015,02,17,16,07,13.90
2015,02,17,16,08,13.90
2015,02,17,16,09,13.90
2015,02,17,16,10,14.00
2015,02,17,16,11,14.00
2015,02,17,16,12,14.00
2015,02,17,16,13,14.00
2015,02,17,16,14,14.00
2015,02,17,16,15,14.00
2015,02,17,16,16,14.00
2015,02,17,16,17,14.00
2015,02,17,16,18,14.10
2015,02,17,16,19,14.20
2015,02,17,16,20,14.20
2015,02,17,16,21,14.30
2015,02,17,16,22,14.30
2015,02,17,16,23,14.40
2015,02,17,16,24,14.40
2015,02,17,16,25,14.30
2015,02,17,16,26,14.30
2015,02,17,16,27,14.20
2015,02,17,16,28,14.10
2015,02,17,16,29,14.00
2015,02,17,16,30,13.90
2015,02,17,16,31,13.80
2015,02,17,16,32,13.60
2015,02,17,16,33,13.50
2015,02,17,16,34,13.40
2015,02,17,16,35,13.20
2015,02,17,16,36,13.10
2015,02,17,16,37,12.90
2015,02,17,16,38,12.80
2015,02,17,16,39,12.70
2015,02,17,16,40,12.60
2015,02,17,16,41,12.50
2015,02,17,16,42,12.40
2015,02,17,16,43,12.30
2015,02,17,16,44,12.20
2015,02,17,16,45,12.10
2015,02,17,16,46,12.00
2015,02,17,16,47,11.90
2015,02,17,16,48,11.90
2015,02,17,16,49,11.80
2015,02,17,16,50,11.80
2015,02,17,16,51,11.70
2015,02,17,16,52,11.70
2015,02,17,16,53,11.60
2015,02,17,16,54,11.50
2015,02,17,16,55,11.50
2015,02,17,16,56,11.40
2015,02,17,16,57,11.30
2015,02,17,16,58,11.20
2015,02,17,16,59,11.10
2015,02,17,17,00,11.00
2015,02,17,17,01,10.90
2015,02,17,17,02,10.80
2015,02,17,17,03,10.80
2015,02,17,17,04,10.70
2015,02,17,17,05,10.60
2015,02,17,17,06,10.60
2015,02,17,17,07,10.50
2015,02,17,17,08,10.50
2015,02,17,17,09,10.40
2015,02,17,17,10,10.40
2015,02,17,17,11,10.40
2015,02,17,17,12,10.30
2015,02,17,17,13,10.30
2015,02,17,17,14,10.20
2015,02,17,17,15,10.20
2015,02,17,17,16,10.10
2015,02,17,17,17,10.00
2015,02,17,17,18,9.90
2015,02,17,17,19,9.90
2015,02,17,17,20,9.80
2015,02,17,17,21,9.80
2015,02,17,17,22,9.70
2015,02,17,17,23,9.70
2015,02,17,17,24,9.70
2015,02,17,17,25,9.70
2015,02,17,17,26,9.70
2015,02,17,17,27,9.60
2015,02,17,17,28,9.60
2015,02,17,17,29,9.50
2015,02,17,17,30,9.40
2015,02,17,17,31,9.40
2015,02,17,17,32,9.30
2015,02,17,17,33,9.30
2015,02,17,17,34,9.30
2015,02,17,17,35,9.30
2015,02,17,17,36,9.20
2015,02,17,17,37,9.20
2015,02,17,17,38,9.20
2015,02,17,17,39,9.20
2015,02,17,17,40,9.10
2015,02,17,17,41,9.10
2015,02,17,17,42,9.00
2015,02,17,17,43,9.00
2015,02,17,17,44,9.00
2015,02,17,17,45,9.00
2015,02,17,17,46,9.00
2015,02,17,17,47,8.90
2015,02,17,17,48,8.90
2015,02,17,17,49,8.90
2015,02,17,17,50,8.90
2015,02,17,17,51,8.80
2015,02,17,17,52,8.80
2015,02,17,17,53,8.80
2015,02,17,17,54,8.80